Welcome to the New NWS' Forecast!
Most changes are behind the scenes, but click here for differences you might notice.
Latest weather observations around

College Park Airport (KCGS)

Using English Units (Switch to International System of Units)
Date/ Time (EDT) Wind (mph) Vis. (mi) Weather Sky Cond. Temp (°F) Rel. Humidity Wind Chill (°F) Heat Index (°F) Pressure Precip. (in)
Air Dwpt 6 hour Altimeter (inHg) Sea level (inHg) 1 hr 3 hr 6 hr
Max Min
Oct 18 16:02 NNW 9 10 Clear CLR 55 31     40%     30.38        
Oct 18 15:42 NW 7 10 Clear CLR 56 31     40%     30.38        
Oct 18 15:22 WNW 8 10 Clear CLR 55 31     39%     30.39        
Oct 18 15:02 NW 9 10 Clear CLR 55 31     39%     30.39        
Oct 18 14:42 NW 9 10 Clear CLR 54 31     40%     30.4        
Oct 18 14:22 NNW 8 10 Clear CLR 55 31     40%     30.4        
Oct 18 14:02 W 8 10 Clear CLR 54 31     41%     30.4        
Oct 18 13:42 WNW 3 10 Clear CLR 54 30     40%     30.41        
Oct 18 13:22 W 7 10 Clear CLR 54 30     40%     30.42        
Oct 18 13:02 NNW 5 10 Clear CLR 54 30     39%     30.43        
Oct 18 12:42 NW 9 10 Clear CLR 53 29     40%     30.43        
Oct 18 12:22 NNW 10 10 Clear CLR 52 29     41%     30.43        
Oct 18 12:02 NW 7 10 Clear CLR 52 30     43%     30.44        
Oct 18 11:42 W 9 10 Clear CLR 52 30     42%     30.44        
Oct 18 11:22 NW 10 10 Clear CLR 51 30     44%     30.44        
Oct 18 11:02 WNW 9 10 Clear CLR 50 28     42%     30.44        
Oct 18 10:42 NW 7 10 Clear CLR 51 29     43%     30.44        
Oct 18 10:22 NW 10 10 Clear CLR 50 29     43%     30.44        
Oct 18 10:02 NW 13 10 Clear CLR 50 29     44% 45   30.44        
Oct 18 09:42 WNW 11 10 Clear CLR 49 28     44% 44   30.44        
Oct 18 09:22 NNW 9 10 Clear CLR 49 28     44% 45   30.44        
Oct 18 09:02 WNW 9 10 Clear CLR 48 27     44% 44   30.43        
Oct 18 08:42 W 5 10 Clear CLR 48 27     44% 46   30.43        
Oct 18 08:22 NW 5 10 Clear CLR 47 27     46% 44   30.41        
Oct 18 08:02 NNW 5 10 Clear CLR 45 27     49% 43   30.41        
Oct 18 07:42 NW 7 10 Clear CLR 45 27     49% 41   30.4        
Oct 18 07:22 NW 5 10 Clear CLR 44 27     51% 42   30.4        
Oct 18 07:02 NW 6 10 Clear CLR 45 27     50% 41   30.38        
Oct 18 06:42 NNW 6 10 Clear CLR 45 28     51% 41   30.38        
Oct 18 06:02 NNW 5 10 Partly Cloudy SCT065 45 28     50% 43   30.36        
Oct 18 05:42 N 5 10 Partly Cloudy SCT065 46 28     49% 44   30.36        
Oct 18 05:02 NNW 8 10 Partly Cloudy SCT065 47 29     49% 43   30.34        
Oct 18 04:42 NNW 6 10 Partly Cloudy SCT065 47 29     49% 45   30.33        
Oct 18 04:22 NNW 7 10 Mostly Cloudy BKN065 48 30     49% 45   30.32        
Oct 18 04:02 NNW 6 10 Cloudy OVC065 48 30     49% 46   30.32        
Oct 18 03:22 N 10 10 Mostly Cloudy BKN065 49 31     51% 44   30.31        
Oct 18 03:02 N 6 10 Partly Cloudy SCT065 48 33     56% 46   30.31        
Oct 18 02:02 NW 8 10 Mostly Cloudy BKN070 50 36     57%     30.28        
Oct 18 01:42 NW 5 10 Mostly Cloudy BKN070 51 36     57%     30.27        
Oct 18 01:02 NNW 6 10 Mostly Cloudy BKN060 BKN075 52 36     56%     30.25        
Oct 18 00:42 NNW 6 10 Cloudy OVC070 52 36     54%     30.25        
Oct 18 00:22 N 5 10 Mostly Cloudy BKN070 BKN080 51 36     57%     30.24        
Oct 18 00:02 NNW 3 10 Clear CLR 54 35     48%     30.22        
Oct 17 23:42 NW 8 10 Partly Cloudy SCT080 54 34     47%     30.21        
Oct 17 23:22 NW 5 10 Partly Cloudy SCT080 54 35     49%     30.2        
Oct 17 23:02 NNW 6 10 Mostly Cloudy BKN080 52 38     57%     30.2        
Oct 17 22:42 Calm 10 Partly Cloudy SCT080 47 43     84%     30.18        
Notice The following observation data may not be complete
Oct 17 22:22 Calm 10 Clear     43      %     30.18        
Oct 17 22:02 Calm 10 Clear   48 43     81%     30.17        
Oct 17 21:42 Calm 10 Partly Cloudy SCT080 48 43     81%     30.16        
Oct 17 21:22 Calm 10 Clear CLR 48 43     81%     30.15        
Oct 17 21:02 Calm 10 Clear CLR 49 42     76%     30.14        
Oct 17 20:42 Calm 10 Clear CLR 50 41     73%     30.13        
Oct 17 20:22 Calm 10 Clear CLR 52 41     65%     30.12        
Oct 17 20:02 Calm 10 Clear CLR 55 39     54%     30.11        
Oct 17 19:42 W 5 10 Clear CLR 59 34     40%     30.1        
Oct 17 19:22 WNW 7 10 Clear CLR 59 34     39%     30.09        
Oct 17 19:02 W 8 10 Clear CLR 60 34     37%     30.08        
Oct 17 18:42 WNW 6 10 Clear CLR 61 34     37%     30.07        
Oct 17 18:22 WNW 7 10 Clear CLR 62 34     35%     30.06        
Oct 17 18:02 W 11 10 Clear CLR 63 33     33%     30.05        
Oct 17 17:42 WNW 9 10 Clear CLR 63 34     33%     30.04        
Oct 17 17:22 W 9 10 Partly Cloudy SCT080 64 35     33%     30.03        
Oct 17 16:42 WNW 13 10 Clear CLR 65 35     32%     30.02        
Oct 17 16:22 WNW 13 10 Clear CLR 66 36     33%     30.01        
Oct 17 15:42 WNW 10 10 Clear CLR 66 38     36%     30        
Oct 17 15:22 WNW 13 10 Clear CLR 66 38     35%     30        
Oct 17 15:02 W 11 10 Clear CLR 66 38     36%     30        
Oct 17 14:42 WSW 10 10 Partly Cloudy SCT070 65 37     36%     30        
Oct 17 14:22 W 8 10 Partly Cloudy SCT070 64 36     35%     30.01        
Oct 17 14:02 W 10 10 Clear CLR 64 35     35%     30.02        
Oct 17 13:42 W 14 10 Clear CLR 63 35     34%     30.04        
Oct 17 13:22 W 6 10 Clear CLR 63 35     35%     30.04        
Oct 17 13:02 W 11 10 Clear CLR 63 35     35%     30.05        
Oct 17 12:42 W 3 10 Clear CLR 62 34     35%     30.06        
Oct 17 12:22 W 10 10 Clear CLR 62 34     35%     30.07        
Oct 17 12:02 W 8 10 Clear CLR 61 35     37%     30.08        
Oct 17 11:42 W 7 10 Clear CLR 60 35     38%     30.09        
Oct 17 11:22 WNW 5 10 Clear CLR 59 35     39%     30.09        
Oct 17 11:02 W 8 10 Clear CLR 58 35     43%     30.09        
Oct 17 10:42 W 9 10 Clear CLR 58 35     42%     30.09        
Oct 17 10:22 W 8 10 Clear CLR 57 35     44%     30.09        
Oct 17 10:02 W 8 10 Clear CLR 56 36     47%     30.09        
Oct 17 09:22 W 5 10 Clear CLR 53 38     58%     30.09        
Oct 17 09:02 Calm 10 Clear CLR 52 38     59%     30.09        
Oct 17 08:42 Calm 10 Clear CLR 52 38     60%     30.09        
Oct 17 08:22 WSW 3 10 Clear CLR 52 38     58%     30.08        
Oct 17 08:02 W 3 10 Clear CLR 51 38     60%     30.08        
Oct 17 07:42 WNW 5 10 Clear CLR 51 37     59%     30.07        
Oct 17 07:22 Calm 10 Clear CLR 50 39     64%     30.07        
Oct 17 07:02 WNW 3 10 Clear CLR 51 40     64%     30.08        
Oct 17 06:42 WNW 6 10 Clear CLR 51 42     72%     30.08        
Oct 17 06:22 Calm 10 Clear CLR 51 45     82%     30.09        
Oct 17 06:02 Calm 10 Clear CLR 49 48     96%     30.08        
Oct 17 05:42 Calm 10 Clear CLR 50 48     95%     30.08        
Oct 17 05:22 Calm 10 Clear CLR 49 48     97%     30.07        
Oct 17 05:02 Calm 10 Clear CLR 50 49     95%     30.07        
Oct 17 04:42 Calm 10 Clear CLR 51 49     94%     30.06        
Oct 17 04:22 Calm 10 Partly Cloudy SCT022 51 49     95%     30.06        
Oct 17 04:02 Calm 10 Partly Cloudy SCT022 51 50     95%     30.05        
Oct 17 03:42 Calm 10 Mostly Cloudy BKN022 51 50     95%     30.05        
Oct 17 03:22 Calm 10 Cloudy OVC022 52 50     95%     30.05        
Oct 17 03:02 Calm 10 Mostly Cloudy BKN022 51 50     95%     30.06        
Oct 17 02:42 Calm 10 Partly Cloudy SCT026 51 49     94%     30.06        
Oct 17 02:22 Calm 10 Cloudy OVC026 52 50     93%     30.07        
Oct 17 02:02 Calm 10 Mostly Cloudy BKN028 53 50     91%     30.07        
Oct 17 01:42 Calm 10 Cloudy OVC030 53 50     91%     30.08        
Oct 17 01:22 Calm 10 Mostly Cloudy BKN032 53 50     91%     30.09        
Oct 17 01:02 Calm 10 Mostly Cloudy BKN032 54 50     86%     30.09        
Notice The following observation data may not be complete
Oct 17 00:42   10 Mostly Cloudy BKN032          %              
Oct 17 00:02 Calm 7 Cloudy OVC032 54 50     88%     30.1        
Oct 16 23:42 Calm 7 Cloudy SCT026 OVC032 54 50     88%     30.1        
Oct 16 23:22 Calm 10 Cloudy OVC028 54 50     86%     30.11        
Oct 16 23:02 Calm 10 Cloudy OVC033 53 49     86%     30.11        
Oct 16 22:42 Calm 10 Mostly Cloudy SCT035 BKN049 53 49     85%     30.11        
Oct 16 22:22 Calm 10 Mostly Cloudy BKN049 53 49     86%     30.12        
Oct 16 22:02 Calm 10 Mostly Cloudy BKN049 53 49     88%     30.12        
Oct 16 21:22 Calm 10 Clear CLR 51 48     89%     30.12        
Oct 16 21:02 Calm 10 Clear CLR 51 47     86%     30.11        
Oct 16 20:42 Calm 10 Clear   51 47     86%     30.12        
Oct 16 20:22 Calm 10 Clear   52 47     83%     30.11        
Oct 16 20:02 Calm 10 Clear   51 47     86%     30.12        
Oct 16 19:42 Calm 10 Clear CLR 52 47     82%     30.12        
Oct 16 19:22 Calm 10 Clear CLR 52 47     83%     30.12        
Oct 16 19:02 Calm 10 Clear CLR 52 47     82%     30.13        
Oct 16 18:42 Calm 10 Clear CLR 53 44     72%     30.12        
Oct 16 18:22 Calm 7 Clear CLR 53 45     73%     30.12        
Oct 16 18:02 Calm 10 Clear CLR 57 39     51%     30.12        
Oct 16 17:42 W 3 10 Clear CLR 57 38     50%     30.12        
Oct 16 17:22 W 3 10 Clear CLR 57 39     50%     30.12        
Oct 16 17:02 WNW 5 10 Clear CLR 58 36     44%     30.12        
Oct 16 16:42 W 6 10 Clear CLR 58 36     43%     30.13        
Oct 16 16:22 W 6 10 Clear CLR 58 36     43%     30.14        
Oct 16 16:02 W 5 10 Clear CLR 58 35     43%     30.14        
Oct 16 15:42 NW 5 10 Clear CLR 58 35     43%     30.13        
Oct 16 15:22 WNW 6 10 Clear CLR 58 35     43%     30.14        
Oct 16 15:02 W 6 10 Clear CLR 59 36     43%     30.14        
Oct 16 14:42 NW 9 10 Clear CLR 59 36     42%     30.15        
Oct 16 14:22 N 7 10 Clear CLR 59 37     44%     30.15        
Oct 16 13:42 NW 7 10 Clear CLR 58 36     44%     30.17        
Oct 16 13:02 WNW 7 10 Clear CLR 57 36     45%     30.2        
Oct 16 12:42 N 9 10 Clear CLR 57 38     49%     30.2        
Oct 16 12:22 N 5 10 Clear CLR 57 38     49%     30.21        
Oct 16 12:02 W 6 10 Clear CLR 57 38     49%     30.22        
Oct 16 11:42 NNE 8 10 Clear CLR 56        %     30.22        
Oct 16 11:22 NNW 7 10 Clear CLR 56        %     30.22        
Oct 16 11:02 WNW 7 10 Clear CLR 57        %     30.24        
Oct 16 10:42 NW 7 10 Clear CLR 56        %     30.23        
Oct 16 10:22 N 8 10 Clear CLR 56        %     30.23        
Oct 16 10:02 NW 7 10 Clear CLR 54        %     30.23        
Oct 16 09:22 N 9 10 Clear CLR 53        %     30.23        
Oct 16 09:02 NNW 7 10 Clear CLR 52        %     30.22        
Oct 16 08:42 N 7 10 Clear CLR 52        %     30.22        
Oct 16 08:22 N 7 10 Clear CLR 52        %     30.22        
Oct 16 08:02 NNW 6 10 Clear CLR 52        %     30.2        
Oct 16 07:42 N 3 10 Clear CLR 52        %     30.19        
Oct 16 07:22 NNW 3 10 Clear CLR 53        %     30.18        
Oct 16 07:02 N 7 10 Clear CLR 53        %     30.18        
Oct 16 06:42 NNW 7 10 Clear CLR 54        %     30.17        
Oct 16 06:22 NNW 6 10 Clear CLR 54        %     30.17        
Oct 16 06:02 NW 3 10 Clear CLR 55        %     30.16        
Oct 16 05:42 NNW 7 10 Clear CLR 56        %     30.15        
Oct 16 05:22 NW 10 10 Clear CLR 56        %     30.15        
Oct 16 05:02 NNW 9 10 Partly Cloudy SCT120 56        %     30.14        
Oct 16 04:42 NNW 9 10 Partly Cloudy SCT120 57        %     30.13        
Oct 16 04:22 NNW 7 10 Clear CLR 57        %     30.12        
Oct 16 04:02 NNW 7 10 Clear CLR 58        %     30.12        
Oct 16 03:42 NNW 10 10 Partly Cloudy SCT065 SCT080 SCT120 59        %     30.11        
Oct 16 03:22 NW 6 10 Mostly Cloudy SCT055 BKN070 BKN120 59        %     30.11        
Oct 16 03:02 NW 8 10 Cloudy OVC055 60        %     30.1        
Oct 16 02:22 NW 7 10 Cloudy OVC055 61        %     30.09        
Oct 16 02:02 WNW 8 10 Cloudy BKN060 OVC120 62        %     30.08        
Oct 16 01:42 NNW 10 10 Cloudy SCT060 SCT075 OVC120 62        %     30.08        
Oct 16 01:22 NW 8 10 Mostly Cloudy SCT070 BKN085 63        %     30.07        
Oct 16 01:02 NNW 11 10 Mostly Cloudy SCT055 BKN070 BKN085 63        %     30.05        
Oct 16 00:42 NW 18 10 Cloudy SCT055 OVC070 64        %     30.04        
Oct 16 00:22 NW 10 10 Cloudy SCT035 BKN055 OVC070 65        %     30.03        
Oct 16 00:02 NW 9 10 Cloudy SCT022 OVC032 66        %     30.03        
Oct 15 23:42 NW 11 10 Cloudy SCT020 BKN027 OVC060 68        %     30.01        
Oct 15 23:22 W 11 10 Cloudy SCT022 BKN060 OVC070 69        %     29.98        
Oct 15 23:02 Calm 10 Partly Cloudy SCT060 SCT120 70        %     29.97        
Oct 15 22:42 Calm 10 Partly Cloudy SCT120 70        %     29.96        
Oct 15 22:22 Calm 10 Clear CLR 70        %     29.96        
Oct 15 22:02 Calm 10 Clear CLR 70        %     29.97        
Oct 15 21:42 Calm 10 Partly Cloudy SCT070 70        %     29.97        
Oct 15 21:22 SSW 5 10 Mostly Cloudy SCT070 BKN110 71        %     29.97        
Oct 15 21:02 SSW 5 10 Mostly Cloudy BKN110 71        %     29.96        
Oct 15 20:42 SSW 5 10 Partly Cloudy SCT110 71 64     81%   71 29.97        
Oct 15 20:22 Calm 10 Clear CLR 70 64     83%     29.97        
Oct 15 20:02 SSW 3 10 Clear CLR 69 64     83%     29.97        
Oct 15 19:42 SSW 5 10 Clear CLR 69 64     83%     29.96        
Oct 15 19:22 Calm 10 Clear CLR 69 64     84%     29.96        
Oct 15 19:02 SSW 5 10 Clear CLR 68 63     85%     29.96        
Oct 15 18:42 Calm 10 Clear CLR 68 63     86%     29.94        
Oct 15 18:22 S 5 10 Partly Cloudy SCT120 68 63     84%     29.96        
Oct 15 18:02 S 5 10 Cloudy OVC110 67 63     85%     29.96        
Oct 15 17:42 Calm 10 Cloudy SCT080 BKN095 OVC120 67 63     85%     29.95        
Oct 15 17:22 Calm 10 Cloudy BKN080 OVC095 68 63     85%     29.96        
Oct 15 17:02 Calm 10 Cloudy OVC090 67 63     87%     29.98        
Oct 15 16:42 Calm 10 Mostly Cloudy BKN100 BKN120 67 63     90%     29.98        
Oct 15 16:22 Calm 10 Mostly Cloudy BKN100 BKN120 66 63     89%     29.99        
Oct 15 16:02 S 3 7 Mostly Cloudy SCT024 SCT043 BKN090 66 62     88%     30        
Oct 15 15:42 S 5 10 Mostly Cloudy SCT039 SCT090 BKN110 66 62     86%     30        
Oct 15 15:22 S 5 10 Mostly Cloudy BKN110 66 62     86%     30.01        
Oct 15 15:02 Calm 10 Cloudy OVC120 65 62     88%     30.01        
Oct 15 14:42 S 5 10 Mostly Cloudy SCT018 SCT025 BKN120 65        %     30.02        
Oct 15 14:22 SSW 6 10 Mostly Cloudy SCT027 BKN034 BKN039 65        %     30.02        
Oct 15 14:02 S 6 10 Mostly Cloudy SCT022 SCT026 BKN034 65 61     88%     30.03        
Oct 15 13:42 Calm 10 Mostly Cloudy SCT023 BKN034 BKN044 65        %     30.04        
Oct 15 13:02 S 5 10 Mostly Cloudy SCT100 BKN120 67        %     30.04        
Oct 15 12:42 S 6 10 Clear CLR 67        %     30.04        
Oct 15 12:22 S 6 10 Partly Cloudy SCT011 SCT085 67        %     30.06        
Oct 15 12:02 SSW 5 10 Mostly Cloudy BKN011 BKN015 65        %     30.06        
Oct 15 11:42 SSW 6 10 Cloudy OVC009 63        %     30.07        
Oct 15 11:22 SSW 5 10 Cloudy OVC009 62        %     30.08        
Oct 15 11:02 SSW 6 10 Cloudy OVC009 61        %     30.09        
Oct 15 10:42 SSW 5 10 Cloudy OVC009 61        %     30.08        
Oct 15 10:22 SSW 5 10 Cloudy OVC009 60        %     30.1        
Oct 15 10:02 S 5 10 Cloudy BKN009 OVC013 60        %     30.09        
Oct 15 09:42 SSW 3 10 Cloudy OVC006 59        %     30.11        
Oct 15 09:22 Calm 10 Cloudy OVC006 58        %     30.11        
Oct 15 09:02 S 3 4 Cloudy OVC006 58        %     30.12        
Oct 15 08:42 S 3 5 Cloudy OVC006 58        %     30.12        
Oct 15 08:22 S 3 5 Cloudy OVC006 57        %     30.12        
Oct 15 08:02 S 5 5 Cloudy BKN006 OVC014 57        %     30.12        
Oct 15 07:42 S 5 7 Cloudy BKN006 BKN014 OVC022 57        %     30.11        
Oct 15 07:22 S 5 5 Cloudy BKN006 BKN010 OVC024 57        %     30.12        
Oct 15 07:02 S 5 3 Cloudy OVC006 57        %     30.12        
Oct 15 06:42 S 3 4 Cloudy OVC008 57        %     30.12        
Oct 15 06:22 Calm 5 Cloudy BKN008 OVC012 56        %     30.13        
Oct 15 06:02 SSE 3 4 Cloudy SCT008 BKN012 OVC027 56        %     30.12        
Oct 15 05:42 Calm 5 Cloudy SCT025 OVC031 56        %     30.12        
Oct 15 05:22 SSE 3 7 Cloudy OVC031 57        %     30.12        
Oct 15 05:02 S 3 10 Cloudy OVC029 57        %     30.13        
Oct 15 04:42 Calm 10 Cloudy BKN031 OVC036 57        %     30.13        
Oct 15 04:22 Calm 10 Cloudy BKN031 OVC065 57        %     30.13        
Oct 15 04:02 Calm 10 Cloudy OVC031 56        %     30.13        
Oct 15 03:42 Calm 10 Cloudy OVC033 56        %     30.14        
Oct 15 03:22 Calm 7 Cloudy OVC033 56        %     30.13        
Oct 15 03:02 Calm 10 Cloudy OVC035 56        %     30.15        
Oct 15 02:42 Calm 10 Cloudy OVC035 56        %     30.16        
Oct 15 02:22 Calm 7 Cloudy OVC035 56        %     30.16        
Oct 15 02:02 Calm 10 Cloudy OVC035 56        %     30.17        
Oct 15 01:42 Calm 7 Clear   56        %     30.17        
Oct 15 01:22 Calm 7 Clear   56        %     30.18        
Oct 15 01:02 Calm 7 Clear   55        %     30.18        
Oct 15 00:42 Calm 7 Cloudy SCT033 BKN039 OVC055 56        %     30.19        
Oct 15 00:22 Calm 5 Cloudy SCT035 OVC055 56        %     30.19        
Oct 15 00:02 Calm 5 Cloudy BKN031 BKN037 OVC055 56        %     30.2        
Oct 14 23:42 Calm 7 Cloudy OVC029 56        %     30.2        
Oct 14 23:22 Calm 10 Cloudy OVC031 57        %     30.21        
Oct 14 23:02 Calm 10 Cloudy SCT027 OVC033 56        %     30.2        
Oct 14 22:42 Calm 10 Cloudy BKN029 OVC034 56        %     30.2        
Oct 14 22:22 Calm 10 Cloudy BKN029 OVC036 56        %     30.2        
Oct 14 22:02 Calm 10 Cloudy OVC035 55        %     30.21        
Oct 14 21:42 Calm 10 Cloudy OVC039 55        %     30.21        
Oct 14 21:22 Calm 10 Cloudy SCT034 OVC041 55        %     30.21        
Oct 14 21:02 Calm 10 Cloudy SCT034 OVC045 55        %     30.2        
Oct 14 20:42 Calm 10 Cloudy SCT045 SCT060 OVC075 55        %     30.21        
Oct 14 20:22 Calm 10 Cloudy SCT038 BKN060 OVC075 55        %     30.2        
Oct 14 20:02 Calm 10 Cloudy SCT031 BKN040 OVC045 54        %     30.21        
Oct 14 19:42 Calm 10 Cloudy SCT029 BKN040 OVC048 54        %     30.21        
Oct 14 19:22 Calm 10 Cloudy SCT042 OVC050 54        %     30.21        
Oct 14 19:02 Calm 10 Cloudy OVC050 55        %     30.21        
Oct 14 18:42 Calm 10 Cloudy OVC060 55        %     30.2        
Oct 14 18:22 Calm 10 Cloudy OVC060 55        %     30.2        
Oct 14 18:02 Calm 10 Cloudy OVC070 55        %     30.21        
Oct 14 17:42 Calm 10 Cloudy OVC070 56        %     30.2        
Oct 14 17:22 Calm 10 Cloudy OVC080 56        %     30.2        
Oct 14 17:02 Calm 10 Cloudy OVC080 56        %     30.21        
Oct 14 16:42 Calm 10 Cloudy OVC080 56 49     78%     30.21        
Oct 14 16:22 Calm 10 Cloudy OVC080 56 49     77%     30.21        
Oct 14 16:02 Calm 10 Cloudy OVC080 56 49     78%     30.22        
Oct 14 15:42 Calm 10 Cloudy SCT080 OVC090 55 48     77%     30.22        
Oct 14 15:22 Calm 10 Cloudy OVC090 55 48     76%     30.22        
Oct 14 15:02 Calm 10 Cloudy OVC090 55 48     79%     30.22        
Oct 14 14:42 Calm 10 Cloudy OVC100 54 47     78%     30.22        
Oct 14 14:22 Calm 10 Cloudy OVC100 54 48     80%     30.22        
Oct 14 14:02 Calm 10 Cloudy SCT032 BKN041 OVC100 54 48     81%     30.23        
Oct 14 13:42 Calm 10 Cloudy BKN032 BKN041 OVC110 53 47     79%     30.24        
Oct 14 13:22 Calm 10 Cloudy OVC110 53 47     82%     30.25        
Oct 14 13:02 Calm 10 Cloudy OVC110 52 47     83%     30.25        
Oct 14 12:42 Calm 10 Cloudy OVC110 52 47     84%     30.26        
Oct 14 12:22 Calm 10 Cloudy OVC110 51 47     85%     30.27        
Oct 14 12:02 Calm 10 Cloudy SCT029 SCT041 OVC095 50 46     87%     30.26        
Oct 14 11:42 Calm 4 Cloudy SCT024 BKN041 OVC095 50 46     85%     30.28        
Oct 14 11:22 Calm 10 Cloudy SCT028 BKN045 OVC095 50 44     78%     30.27        
Oct 14 11:02 Calm 10 Mostly Cloudy SCT033 SCT048 BKN100 51 43     74%     30.28        
Oct 14 10:42 Calm 10 Mostly Cloudy SCT100 BKN120 51 44     76%     30.27        
Oct 14 10:22 Calm 10 Mostly Cloudy BKN120 50 44     79%     30.27        
Oct 14 10:02 Calm 10 Partly Cloudy SCT046 50 43     77%     30.27        
Oct 14 09:42 Calm 10 Mostly Cloudy BKN046 49 43     78%     30.26        
Oct 14 09:22 Calm 10 Partly Cloudy SCT046 49 43     80%     30.26        
Oct 14 09:02 Calm 10 Mostly Cloudy BKN046 49 43     82%     30.26        
Oct 14 08:42 Calm 10 Cloudy OVC046 48 43     83%     30.26        
Oct 14 08:22 Calm 10 Mostly Cloudy BKN046 47 43     85%     30.24        
Oct 14 08:02 Calm 10 Clear CLR 46 42     88%     30.22        
Oct 14 07:42 Calm 10 Clear CLR 46 43     91%     30.22        
Oct 14 07:22 Calm 10 Clear CLR 45 43     91%     30.2        
Oct 14 07:02 Calm 10 Clear CLR 45 43     91%     30.21        
Oct 14 06:42 Calm 10 Clear CLR 45 43     93%     30.22        
Oct 14 06:22 Calm 10 Clear CLR 45 43     93%     30.2        
Oct 14 06:02 Calm 10 Clear CLR 44 43     95%     30.2        
Oct 14 05:42 Calm 10 Clear CLR 44 42     93%     30.2        
Oct 14 05:22 Calm 10 Clear CLR 44 42     94%     30.19        
Oct 14 05:02 Calm 10 Clear CLR 44 42     93%     30.2        
Oct 14 04:42 Calm 10 Clear CLR 43 41     93%     30.19        
Oct 14 04:22 Calm 10 Clear CLR 43 41     92%     30.19        
Oct 14 04:02 Calm 10 Clear CLR 43 41     93%     30.18        
Oct 14 03:42 Calm 10 Clear CLR 42 41     94%     30.19        
Oct 14 03:22 Calm 10 Clear CLR 43 41     92%     30.19        
Oct 14 03:02 Calm 10 Clear CLR 43 41     93%     30.18        
Oct 14 02:42 Calm 10 Clear CLR 43 41     93%     30.19        
Oct 14 02:22 Calm 10 Clear CLR 43 41     92%     30.19        
Oct 14 02:02 Calm 10 Clear CLR 43 40     91%     30.18        
Oct 14 01:42 Calm 10 Clear CLR 43 40     89%     30.19        
Oct 14 01:22 Calm 10 Clear CLR 43 40     88%     30.18        
Oct 14 01:02 Calm 10 Clear CLR 43 40     87%     30.18        
Oct 14 00:22 Calm 10 Clear CLR 43 40     89%     30.17        
Oct 14 00:02 Calm 10 Clear CLR 44 40     86%     30.17        
Oct 13 23:42 Calm 10 Clear CLR 44 40     87%     30.16        
Oct 13 23:22 Calm 10 Clear CLR 45 40     84%     30.15        
Oct 13 23:02 Calm 10 Clear CLR 45 40     83%     30.15        
Oct 13 22:42 Calm 10 Clear CLR 45 40     82%     30.13        
Oct 13 22:22 Calm 10 Clear CLR 45 40     81%     30.13        
Oct 13 22:02 Calm 10 Clear CLR 46 40     77%     30.13        
Oct 13 21:42 N 3 10 Clear CLR 47 39     74% 46   30.12        
Oct 13 21:22 NNW 3 10 Clear CLR 48 38     70% 47   30.11        
Oct 13 21:02 N 3 10 Clear CLR 47 39     73% 46   30.11        
Oct 13 20:42 Calm 10 Clear CLR 49 39     69%     30.11        
Oct 13 20:22 NW 5 10 Clear CLR 49 38     66% 48   30.1        
Oct 13 20:02 NNW 3 10 Clear CLR 48 40     73% 47   30.09        
Oct 13 19:42 Calm 10 Clear CLR 50 38     64%     30.08        
Oct 13 19:22 NNW 5 10 Clear CLR 51 38     60%     30.07        
Oct 13 19:02 Calm 10 Clear CLR 51 38     60%     30.07        
Oct 13 18:42 NNW 3 10 Clear CLR 53 38     57%     30.05        
Notice The following observation data may not be complete
Oct 13 18:02   10 Mostly Cloudy BKN049          %              
Oct 13 17:42 NNW 7 10 Partly Cloudy SCT049 56 37     50%     30.03        
Notice The following observation data may not be complete
Oct 13 17:02   10 Clear CLR          %              
May 15 12:37 S 5 10 Clear CLR 81 69     67%   84 29.91        
May 15 03:17 Calm 10 Clear CLR 65 62     90%     29.95        
May 14 13:37 Calm 7 Partly Cloudy SCT016 72 64     77%   72 30.02        
May 14 12:57 Calm 7 Mostly Cloudy BKN012 69 62     79%     30.02        
May 14 11:17 Calm 5 Cloudy OVC006 63 60     89%     30.03        
May 14 07:57 Calm 1.25 Cloudy OVC002 59 58     98%     30.03        
May 14 04:17 Calm 2.5 Cloudy OVC004 59 58     97%     29.98        
May 14 03:37 Calm 5 Cloudy OVC006 59 58     96%     29.97        
May 14 01:37 Calm 7 Cloudy OVC008 60 58     96%     30.02        
May 13 21:37 N 3 7 Cloudy OVC006 60 58     93%     30.05        
May 13 18:37 ESE 5 7 Cloudy OVC006 60 57     91%     30.02        
May 13 15:17 E 9 2.5 Cloudy OVC004 60 59     95%     30.06        
May 13 12:17 Calm 10 Cloudy BKN008 OVC013 67 63     89%     30.08        
May 12 21:57 Calm 7 Clear CLR 67 64     88%     30.03        
Notice The following observation data may not be complete
May 12 16:37   10 Clear CLR          %              
May 12 12:57 Calm 10 Clear CLR 79 63     59%   79 30.02        
May 12 01:17 Calm 10 Clear CLR 62 55     79%     30.04        
May 11 22:57 Calm 10 Partly Cloudy SCT100 62 56     80%     30.08        
May 11 22:17 Calm 10 Clear CLR 65 56     74%     30.07        
Notice The following observation data may not be complete
May 11 21:17 Calm 10 Clear CLR   54      %     30.05        
May 11 10:17 NW 8 10 Clear CLR 74 55     51%   74 30.02        
Notice The following observation data may not be complete
Jun 12 06:33   10 Mostly Cloudy BKN080          %              
Jun 12 03:33 Calm 10 Clear CLR 68 65     91%     30.05        
Notice The following observation data may not be complete
Jun 12 02:33 Calm 10 Clear CLR   67      %     30.05        
Jun 11 22:53 Calm 10 Clear CLR 75 65     72%   76 30.07        
Notice The following observation data may not be complete
Jun 11 21:13   10 Clear CLR          %              
Jun 11 06:13 Calm 10 Clear CLR 64 62     91%     30.1        
Notice The following observation data may not be complete
Jun 11 02:13   10 Clear CLR          %              
Notice The following observation data may not be complete
Jun 11 01:33 Calm 10 Clear CLR   61      %     30.07        
Jun 11 01:13 Calm 10 Clear CLR 69 61     77%     30.07        
Notice The following observation data may not be complete
Jun 11 00:13 Calm 10 Clear CLR   61      %     30.07        
Jun 10 22:33 Calm 10 Clear CLR 71 62     71%   72 30.07        
Notice The following observation data may not be complete
Jun 10 12:33   10 Clear CLR          %              
Jun 10 11:33 S 3 10 Clear CLR 82 53     36%   81 30.05        
Jun 10 09:33 Calm 10 Clear CLR 74 59     59%   74 30.04        
Notice The following observation data may not be complete
Jun 10 04:33 Calm 10 Clear CLR   56      %     29.98        
Jun 09 21:33 Calm 10 Clear CLR 67 54     62%     29.92        
Jun 09 17:33 WSW 5 10 Partly Cloudy SCT075 80 51     35%   80 29.84        
Jun 09 13:53 WNW 9 10 Partly Cloudy SCT065 SCT080 79 52     39%   78 29.85        
Notice The following observation data may not be complete
Jun 09 13:33   10 Mostly Cloudy BKN065          %              
Jun 09 12:53 WNW 9 10 Partly Cloudy SCT060 SCT070 77 52     41%   77 29.86        
Jun 09 09:53 WNW 9 10 Clear CLR 71 54     55%   70 29.85        
Notice The following observation data may not be complete
Jun 09 07:33   10 Clear CLR          %              
Jun 09 00:53 Calm 10 Clear CLR 54 51     90%     29.83        
Jun 08 15:53 N 5 10 Mostly Cloudy BKN075 72 47     42%   71 29.9        
Jun 08 14:53 NNE 7 10 Clear CLR 71 44     38%   70 29.92        
Jun 08 12:53 NE 8 10 Clear CLR 68 49     50%     29.96        
Jun 08 01:53 Calm 10 Clear CLR 51 50     97%     30.04        
Jun 07 22:53 Calm 10 Clear CLR 54 52     93%     30.05        
Jun 07 22:13 Calm 10 Clear CLR 54 52     92%     30.04        
Jun 07 11:53 NE 3 10 Cloudy SCT016 BKN023 OVC070 62 54     76%     29.99        
Jun 07 11:33 E 8 10 Cloudy BKN018 BKN023 OVC060 62 54     75%     29.98        
Jun 06 11:13 NW 9 10 Partly Cloudy SCT047 72 53     51%   71 29.76        
Notice The following observation data may not be complete
Jun 06 10:33   10 Clear CLR          %              
Jun 06 08:13 NNW 11 10 Partly Cloudy SCT025 69 59     71%     29.74        
Jun 06 07:13 NNW 6 10 Clear CLR 66 59     78%     29.72        
Notice The following observation data may not be complete
Jun 06 03:33   2.5 Mostly Cloudy BKN048          %              
Jun 06 00:13 Calm 3 Partly Cloudy SCT065 64 64     98%     29.68        
Notice The following observation data may not be complete
Jun 05 23:33   7 Clear CLR          %